Wind_Speed
7 4 14 14 10 13 2 3 8 6 6 14 13 18 12 11 8 10 13 14 15 12 16 24 27 37 40 40 41 41 41 38 41 37 38 38 40 41 39 39 38 38 37 35
4 14 8 4 8 9 11 11 14 9 7 6 10 17 17 14 14 13 17 17 15 16 14 19 28 25 33 40 43 42 41 40 43 37 38 36 35 36 41 40 41 40 40 39
11 5 11 7 8 8 11 15 12 8 4 10 9 15 16 15 16 17 21 20 18 18 18 13 20 29 33 34 39 41 46 45 47 44 34 31 29 29 31 38 44 45 43 43
8 13 7 11 14 11 15 7 7 9 5 6 7 6 16 9 17 20 17 18 21 21 17 13 15 21 29 36 40 47 45 42 44 43 36 37 36 33 40 40 40 40 46 46
12 10 12 12 14 7 10 7 9 9 9 8 7 5 10 3 10 15 10 10 13 19 21 20 18 26 31 33 37 40 42 40 41 41 44 38 36 36 31 31 35 40 42 49
16 4 9 11 14 11 5 1 4 2 1 10 16 10 12 10 15 12 9 14 18 13 13 17 29 27 26 29 33 37 38 40 41 41 43 42 40 37 32 33 35 37 40 46
6 12 3 3 5 6 5 5 4 5 5 5 9 7 16 16 20 12 18 15 13 10 9 12 11 11 22 27 30 33 34 35 37 39 41 45 43 41 39 37 36 34 36 37
12 5 15 6 10 7 7 10 7 8 5 4 2 7 8 17 18 18 20 21 17 17 14 10 9 13 17 25 29 28 32 35 39 42 44 44 46 43 44 42 40 39 38 40
8 8 5 8 7 10 5 7 12 12 10 3 5 6 14 14 16 10 9 9 10 11 11 8 8 11 13 15 18 23 29 33 36 40 42 44 43 44 44 43 42 40 39 39
4 2 7 8 6 10 15 6 3 3 4 11 7 7 9 9 4 7 8 7 9 8 9 7 6 9 10 11 13 15 17 27 36 36 37 39 42 43 45 42 41 40 41 41
4 3 4 9 8 11 4 11 6 3 4 3 6 6 9 9 5 6 9 10 12 8 6 6 4 7 6 8 8 12 17 22 29 33 34 35 37 39 40 42 42 42 41 39
5 3 4 6 4 6 16 18 15 8 7 4 3 11 3 11 14 14 8 12 10 12 12 12 9 12 9 10 9 10 14 17 25 30 33 36 35 36 38 41 41 40 40 40
10 4 2 7 6 3 5 6 8 5 5 16 9 12 1 9 8 12 11 9 10 9 10 9 9 6 13 16 17 18 18 22 23 25 30 34 37 36 36 39 40 41 40 39
16 4 8 10 5 5 5 5 6 8 7 18 15 25 28 15 7 9 13 15 18 17 15 10 10 8 20 23 26 26 26 25 28 25 27 32 35 36 37 38 38 38 39 40
11 7 6 1 6 2 4 6 10 14 17 9 19 14 25 13 8 13 16 18 18 16 16 16 17 17 23 28 31 33 32 31 33 32 29 31 33 37 35 36 38 39 39 42
3 3 3 1 3 5 9 11 7 6 5 9 9 18 19 15 10 8 9 9 11 14 15 17 17 16 24 29 31 35 34 36 40 39 35 32 32 33 35 38 41 42 40 39
8 6 3 4 3 1 8 7 13 12 8 8 11 22 22 11 11 12 11 12 13 15 16 18 18 19 27 32 33 32 40 41 37 37 39 33 32 33 34 38 40 42 42 40
6 6 3 3 4 3 5 3 4 10 11 8 13 9 11 9 10 6 12 15 15 16 17 18 21 30 33 33 35 37 39 39 38 34 37 41 34 35 35 35 38 42 42 41
7 5 2 4 4 5 6 7 4 6 3 7 6 10 11 14 9 6 15 15 15 16 20 24 26 30 36 35 34 38 37 36 35 32 35 40 44 40 37 35 37 41 38 39
5 4 4 3 5 8 6 2 2 3 4 8 9 10 13 13 3 3 24 24 18 22 26 29 31 32 29 32 35 34 31 33 32 34 39 39 41 39 37 39 38 35 32 36
3 2 8 3 3 7 6 7 6 3 4 6 8 8 10 6 4 14 18 21 25 28 31 32 31 29 32 32 36 33 32 29 34 39 41 39 39 40 38 37 37 33 31 30
7 7 4 3 2 8 5 0 4 3 6 6 7 9 11 13 15 13 13 17 23 25 29 31 33 33 30 31 31 33 32 37 38 39 39 38 37 38 37 34 33 32 29 30
2 6 6 9 5 5 7 13 9 7 3 4 7 9 11 15 16 15 14 14 18 27 31 29 28 34 33 29 29 32 35 38 40 40 38 36 35 35 33 24 22 22 25 24
3 0 4 5 3 8 11 10 8 5 6 6 7 10 12 14 16 17 15 15 18 23 27 31 31 29 32 33 30 31 34 35 36 37 37 34 30 27 22 19 19 20 20 19
2 3 5 5 7 11 8 9 7 5 6 8 9 11 12 14 16 17 16 16 21 24 26 28 28 29 31 33 33 33 32 33 34 33 33 31 27 26 23 20 20 20 22 22
2 3 4 3 5 1 5 6 8 7 8 9 11 12 14 14 14 20 13 22 23 25 27 26 28 29 31 32 33 33 33 34 33 31 29 28 28 27 25 22 21 20 24 26
Wind_Direction
184 181 216 210 208 243 316 221 250 257 289 262 263 279 294 278 255 257 260 262 260 248 244 242 245 228 217 216 214 214 211 215 208 204 204 210 214 217 221 223 223 223 224 224
182 225 212 154 176 208 228 235 254 275 268 336 324 297 290 279 266 252 261 264 261 252 242 240 242 238 212 209 212 212 210 210 212 208 211 212 213 215 219 222 224 225 226 225
213 227 187 209 224 215 231 235 243 242 321 294 302 293 278 268 254 260 260 262 257 251 247 239 234 230 219 211 205 209 213 208 210 211 210 212 216 219 216 219 223 225 225 224
217 234 214 210 230 208 243 200 210 221 222 263 168 286 274 277 276 275 275 258 259 260 253 244 229 229 222 214 210 213 215 207 208 205 205 205 208 211 217 215 218 221 225 225
217 172 197 217 226 170 251 188 228 232 247 256 235 255 283 219 271 268 275 265 256 250 246 243 237 231 227 224 216 213 214 211 206 203 206 209 214 220 222 218 216 218 221 224
226 156 175 201 222 202 217 185 238 200 194 239 237 209 262 259 251 263 259 260 267 268 254 241 238 237 233 231 224 218 214 211 206 204 207 209 214 217 219 217 214 214 214 218
219 233 275 179 177 185 170 155 251 234 212 256 234 202 242 266 254 259 274 266 268 270 259 250 243 233 229 233 230 218 213 212 210 209 209 212 216 216 219 219 216 214 215 214
214 225 202 190 195 174 189 195 220 242 222 269 17 207 245 229 270 264 260 269 268 276 273 248 240 239 239 243 241 231 213 215 213 212 213 215 217 217 219 222 220 218 217 217
185 237 197 184 174 149 206 198 233 256 263 287 235 261 288 269 264 254 281 288 273 281 276 277 270 256 252 252 254 249 226 220 221 220 219 219 219 219 222 223 223 222 223 223
178 205 206 202 144 210 208 149 227 200 243 250 233 224 232 251 275 311 301 326 304 304 304 321 339 347 329 300 297 294 270 239 233 228 227 226 224 223 225 227 226 224 226 223
170 125 275 137 199 187 197 224 219 206 191 255 249 244 226 252 309 320 330 328 319 319 344 341 330 4 356 323 306 296 282 273 255 241 234 233 231 229 229 230 229 226 226 224
172 129 205 230 220 187 207 215 212 223 234 239 304 270 237 288 295 315 333 338 357 350 339 332 331 339 330 311 292 285 291 277 270 265 250 236 236 233 231 231 230 230 228 225
169 211 80 340 324 244 210 195 196 212 243 248 247 260 186 281 320 323 337 343 320 308 313 315 318 308 295 292 282 274 285 289 287 275 265 256 240 235 234 233 232 229 230 228
165 171 202 216 205 173 198 183 204 205 230 248 240 262 276 277 308 321 324 313 306 312 308 289 288 291 301 300 301 298 291 287 292 284 272 264 255 242 236 235 235 232 227 227
168 193 196 191 302 112 200 227 222 216 239 235 264 258 270 288 293 292 286 289 293 322 359 7 2 355 341 336 333 323 311 299 294 285 276 269 267 260 248 241 237 235 230 228
178 166 123 35 196 259 275 257 207 228 242 254 272 270 274 281 270 280 283 19 34 357 355 355 355 353 350 342 335 330 325 311 308 294 279 275 271 264 256 251 246 240 234 232
150 125 115 242 241 90 298 223 227 239 215 228 245 258 280 357 359 23 39 33 9 356 349 346 341 338 338 332 331 330 328 324 316 300 291 279 273 265 260 256 252 246 240 236
126 111 128 189 59 239 241 71 206 213 241 260 263 315 31 359 305 97 46 21 357 348 343 340 336 334 333 329 328 328 329 326 323 317 299 285 273 267 267 262 256 252 245 237
129 122 134 162 203 307 307 267 212 189 224 27 345 360 4 343 304 202 29 9 344 338 333 327 327 326 322 325 327 328 327 327 326 321 311 303 289 275 271 269 265 257 247 241
96 116 152 103 156 210 219 194 31 208 232 26 21 4 356 351 17 322 338 337 332 330 327 324 324 322 323 323 326 324 323 324 322 324 317 311 305 295 285 281 274 265 246 242
105 40 191 183 214 284 255 321 345 108 282 37 28 1 345 341 301 312 313 314 319 319 321 326 324 320 323 326 327 322 322 320 319 316 314 310 304 300 295 287 278 265 248 242
156 153 178 86 79 276 20 250 201 61 59 22 9 352 327 312 311 311 311 310 313 319 325 327 322 323 326 325 324 319 318 320 318 317 312 310 306 302 298 291 279 263 249 244
173 180 175 180 200 61 35 100 90 62 84 15 343 333 321 313 316 321 319 317 323 319 320 322 320 318 319 322 321 315 316 317 318 316 313 310 309 303 302 285 269 257 244 236
156 256 145 129 131 127 110 88 58 49 51 4 343 324 324 317 323 323 325 328 323 323 320 321 324 320 318 321 319 314 316 318 318 312 312 312 312 308 299 284 267 254 245 238
201 99 140 81 87 108 106 59 53 40 20 355 341 337 331 327 325 329 326 324 324 323 321 322 321 321 318 319 318 319 323 323 318 313 309 310 314 312 305 293 276 262 256 247
346 151 157 182 141 143 111 44 47 31 14 2 347 339 338 332 329 331 323 324 325 325 322 324 321 321 323 323 320 323 328 325 319 313 310 309 310 310 306 299 294 278 263 261
Height
827 833 826 827 828 831 833 836 836 829 831 832 829 821 817 810 809 807 802 797 793 791 784 781 781 782 783 785 791 794 798 803 806 809 810 814 814 818 821 823 826 829 831 834
828 823 823 823 827 835 835 838 832 830 830 834 831 825 814 810 803 798 794 789 789 782 778 774 773 775 777 776 779 785 788 793 797 802 802 805 809 810 813 816 819 821 823 826
819 816 820 822 828 833 832 832 832 835 832 830 835 831 813 799 793 788 781 781 776 775 771 768 766 763 766 770 771 775 776 778 782 789 797 801 806 808 807 807 809 810 814 816
820 812 819 821 823 825 832 826 829 833 839 838 832 830 808 803 795 785 781 778 771 767 764 761 757 756 758 759 761 762 767 770 773 780 787 788 790 792 790 793 798 802 804 808
807 812 816 820 814 821 824 821 825 829 829 832 833 834 803 797 795 784 781 773 765 757 754 751 749 746 746 751 754 755 759 763 765 770 775 781 784 784 788 790 790 792 794 798
802 802 807 808 809 816 817 820 823 826 832 827 818 829 806 797 785 777 770 762 753 752 749 742 738 738 739 742 746 750 752 753 757 762 765 769 772 776 780 780 781 781 783 786
805 805 800 798 811 815 821 827 831 831 829 815 804 821 800 782 769 769 759 756 750 748 744 739 734 733 731 734 738 741 744 747 751 753 756 758 761 766 768 770 771 773 775 776
808 822 800 795 800 807 817 819 820 825 818 819 813 813 790 770 759 756 755 748 745 742 736 734 729 728 725 728 730 733 735 737 739 741 742 746 750 753 754 758 759 761 763 763
803 801 787 787 790 799 808 815 806 817 817 833 809 795 775 763 758 755 754 749 746 739 734 730 727 722 721 724 727 729 730 730 733 734 735 737 740 743 743 745 748 751 754 756
784 795 782 784 788 791 792 799 815 819 830 811 803 799 781 761 755 754 752 752 748 739 733 728 726 722 722 724 726 728 729 729 728 729 730 730 731 733 735 738 738 741 743 746
780 786 786 783 785 788 800 800 804 804 814 802 796 791 759 756 758 755 756 755 749 740 736 730 725 723 724 726 725 724 725 724 723 722 724 725 725 725 728 728 730 730 734 738
780 787 802 788 777 778 781 785 793 804 811 815 798 780 753 753 753 753 756 756 751 748 744 739 732 727 726 727 726 723 720 718 716 716 716 716 717 717 717 718 720 723 725 727
772 789 828 810 790 777 781 781 782 787 795 793 801 779 745 755 757 756 759 756 752 747 743 740 734 729 726 725 721 717 715 714 712 711 710 708 707 708 708 710 711 712 715 717
763 779 779 778 786 774 781 780 781 786 794 777 784 768 746 756 763 761 757 749 744 741 741 737 731 728 724 722 718 715 711 710 708 706 705 704 703 700 698 700 702 703 704 705
763 788 778 775 773 775 773 774 780 781 772 787 764 772 743 756 760 756 754 749 745 746 746 748 743 738 733 727 720 715 709 705 702 698 695 694 692 692 692 692 692 693 694 694
766 784 781 799 776 775 776 772 778 778 779 780 778 772 750 751 752 754 754 759 764 760 758 752 747 743 740 736 729 719 711 704 697 692 689 686 686 685 684 683 682 683 684 685
762 782 793 819 783 783 801 775 769 764 767 768 774 751 741 760 762 767 771 770 768 764 760 755 753 750 744 739 731 721 714 705 694 689 685 682 678 676 674 673 672 672 674 676
771 778 789 818 811 805 766 757 756 762 758 757 755 759 782 784 774 777 777 774 771 769 763 759 753 744 743 737 728 721 713 704 694 687 682 675 669 667 665 664 663 664 664 663
757 775 789 788 831 794 770 756 752 756 762 787 782 783 788 787 768 773 773 778 777 773 768 763 758 754 743 735 729 720 710 704 695 687 678 672 667 660 657 655 654 653 654 654
759 762 781 851 837 824 768 748 749 747 768 795 795 795 794 787 775 772 775 773 774 776 771 762 757 751 746 738 731 723 715 706 697 689 680 672 665 658 654 650 646 645 645 643
798 807 790 846 840 802 765 762 753 780 770 803 804 803 801 801 801 796 789 778 779 774 767 762 755 749 744 735 727 718 712 706 699 688 678 668 659 651 646 642 639 638 637 637
773 796 818 835 834 798 776 765 754 794 803 805 807 806 804 802 799 798 793 786 776 767 762 759 749 743 740 737 728 718 710 703 695 686 675 663 654 645 639 634 632 631 631 631
763 755 773 773 774 785 789 793 803 806 805 808 809 807 806 802 796 793 790 787 781 773 764 760 754 744 740 735 730 718 710 702 691 681 670 659 649 641 633 628 626 627 626 624
747 751 752 761 782 792 798 803 806 807 809 810 811 809 806 801 796 790 786 784 781 776 767 759 752 744 736 731 725 718 708 700 691 678 665 655 645 637 630 624 622 622 620 618
762 757 766 780 790 798 803 806 808 810 811 810 809 808 804 801 795 792 787 783 779 774 767 761 754 745 737 729 721 712 703 696 686 676 664 652 642 635 628 623 620 617 615 615
783 772 760 764 792 794 795 804 810 809 809 809 809 806 805 802 797 793 788 784 778 772 765 759 753 745 736 728 720 710 701 693 684 673 662 651 640 633 626 620 614 612 610 610